Change the Weather History Date:

Sunday, October 27, 2013

  Actual Average (PABN) Record (PABN)
Temperature  
Mean Temperature 28 °F -  
Max Temperature 37 °F 18 °F 35 °F (2002)
Min Temperature 19 °F 9 °F -13 °F (1997)
Degree Days  
Heating Degree Days 37    
Moisture  
Dew Point 27 °F    
Average Humidity 79    
Maximum Humidity 92    
Minimum Humidity 62    
Precipitation  
Precipitation 0.06 in - - ()
Sea Level Pressure  
Sea Level Pressure 30.16 in    
Wind  
Wind Speed 7 mph (SE)    
Max Wind Speed 15 mph    
Max Gust Speed 29 mph    
Visibility 6 miles    
Events Snow    
Averages and records for this station are not official NWS values.
T = Trace of Precipitation, MM = Missing Value Source: NWS Daily Summary

Daily Weather History Graph

Daily Weather History Graph

Search for Another Location

Airport or City:

Trip Planner

Search our weather history database for the weather conditions in past years. The results will help you decide how hot, cold, wet, or windy it might be!

Date:

Astronomy

Oct. 27, 2013 Rise Set
Actual Time 8:56 AM AKDT 5:18 PM AKDT
Civil Twilight 8:03 AM AKDT 6:12 PM AKDT
Nautical Twilight 7:05 AM AKDT 7:09 PM AKDT
Astronomical Twilight 6:09 AM AKDT 8:05 PM AKDT
Moon No Moon Rise 3:43 PM AKDT (10/27)
Length of Visible Light 10h 08m
Length of Day
8h 22m
Last Quarter, 42% of the Moon is Illuminated
Oct 27
Last Quarter
Nov 3
New
Nov 9
First Quarter
Nov 17
Full
Nov 25
Last Quarter

Hourly Weather History & Observations

Time (AKDT) Temp. Windchill Dew Point Humidity Pressure Visibility Wind Dir Wind Speed Gust Speed Precip Events Conditions
12:53 AM 19.9 °F 12.1 °F 18.0 °F 92% 30.56 in 10.0 mi ENE 5.8 mph - N/A   Clear
1:53 AM 27.0 °F 23.0 °F 24.1 °F 89% 30.53 in 10.0 mi Variable 3.5 mph - N/A   Clear
2:53 AM 28.9 °F 21.9 °F 24.1 °F 82% 30.52 in 10.0 mi ESE 6.9 mph - N/A   Clear
3:53 AM 28.0 °F 21.7 °F 23.0 °F 81% 30.49 in 10.0 mi East 5.8 mph 16.1 mph N/A   Clear
4:53 AM 28.0 °F 21.7 °F 23.0 °F 81% 30.47 in 10.0 mi East 5.8 mph - N/A   Clear
5:53 AM 28.9 °F 21.1 °F 23.0 °F 78% 30.45 in 10.0 mi ESE 8.1 mph 17.3 mph N/A   Clear
6:53 AM 28.9 °F 21.9 °F 24.1 °F 82% 30.43 in 10.0 mi East 6.9 mph - N/A   Clear
7:53 AM 30.9 °F 23.5 °F 24.1 °F 76% 30.40 in 10.0 mi South 8.1 mph - N/A   Clear
8:53 AM 33.1 °F 26.1 °F 25.0 °F 72% 30.36 in 10.0 mi SSE 8.1 mph 19.6 mph N/A   Partly Cloudy
9:53 AM 35.1 °F - 25.0 °F 67% 30.35 in 10.0 mi Calm Calm - N/A   Clear
10:53 AM 35.1 °F 30.1 °F 25.0 °F 67% 30.34 in 10.0 mi Variable 5.8 mph 21.9 mph N/A   Mostly Cloudy
11:53 AM 35.1 °F 27.9 °F 25.0 °F 67% 30.31 in 10.0 mi SSE 9.2 mph - N/A   Overcast
12:53 PM 36.0 °F 29.0 °F 25.0 °F 64% 30.27 in 10.0 mi SE 9.2 mph 20.7 mph N/A   Overcast
1:53 PM 36.0 °F 27.5 °F 25.0 °F 64% 30.22 in 10.0 mi SSE 12.7 mph 21.9 mph N/A   Overcast
2:53 PM 37.0 °F 28.1 °F 25.0 °F 62% 30.18 in 10.0 mi SSE 15.0 mph 25.3 mph N/A   Scattered Clouds
3:53 PM 36.0 °F 29.6 °F 25.0 °F 64% 30.18 in 10.0 mi SE 8.1 mph 21.9 mph N/A   Partly Cloudy
4:53 PM 36.0 °F 29.6 °F 25.0 °F 64% 30.15 in 10.0 mi SSE 8.1 mph 28.8 mph N/A   Scattered Clouds
5:53 PM 36.0 °F 29.0 °F 26.1 °F 67% 30.12 in 10.0 mi ESE 9.2 mph 17.3 mph N/A   Overcast
6:53 PM 35.1 °F 27.4 °F 27.0 °F 72% 30.10 in 10.0 mi SSE 10.4 mph 23.0 mph 0.00 in   Overcast
7:53 PM 34.0 °F 26.0 °F 28.0 °F 79% 30.06 in 2.5 mi SE 10.4 mph 20.7 mph 0.00 in Snow Light Snow
8:09 PM 33.8 °F 26.4 °F 28.4 °F 81% 30.02 in 1.8 mi SE 9.2 mph 23.0 mph 0.00 in Snow Light Snow
8:23 PM 33.8 °F 25.3 °F 28.4 °F 81% 30.01 in 2.0 mi SE 11.5 mph 19.6 mph 0.01 in Snow Light Snow
8:37 PM 33.8 °F 27.0 °F 28.4 °F 81% 30.00 in 1.5 mi SE 8.1 mph - 0.01 in Snow Light Snow
8:53 PM 33.1 °F 23.4 °F 28.9 °F 85% 30.02 in 1.2 mi SE 13.8 mph 23.0 mph 0.02 in Snow Light Snow
9:22 PM 33.8 °F 26.4 °F 30.2 °F 87% 29.97 in 2.5 mi SE 9.2 mph 17.3 mph 0.00 in Snow Light Snow
9:34 PM 33.8 °F 25.3 °F 30.2 °F 87% 29.96 in 1.8 mi SE 11.5 mph 16.1 mph 0.01 in Snow Light Snow
9:43 PM 33.8 °F 28.6 °F 30.2 °F 87% 29.96 in 2.5 mi ESE 5.8 mph 20.7 mph 0.01 in Snow Light Snow
9:50 PM 33.8 °F 28.6 °F 30.2 °F 87% 29.95 in 3.0 mi Variable 5.8 mph - 0.01 in Snow Light Snow
9:53 PM 33.1 °F 25.5 °F 30.0 °F 89% 29.99 in 3.0 mi ESE 9.2 mph - 0.01 in Snow Light Snow
10:00 PM 33.8 °F 29.6 °F 30.2 °F 87% 29.95 in 2.5 mi Variable 4.6 mph 20.7 mph 0.00 in Snow Light Snow
10:13 PM 33.8 °F 27.7 °F 30.2 °F 87% 29.94 in 1.8 mi Variable 6.9 mph 19.6 mph 0.00 in Snow Light Snow
10:20 PM 33.8 °F 28.6 °F 30.2 °F 87% 29.93 in 2.0 mi Variable 5.8 mph - 0.00 in Snow Light Snow
10:32 PM 33.8 °F 29.6 °F 30.2 °F 87% 29.93 in 1.5 mi Variable 4.6 mph 16.1 mph 0.01 in Snow Light Snow
10:53 PM 33.1 °F 27.7 °F 30.0 °F 89% 29.95 in 1.2 mi Variable 5.8 mph - 0.02 in Snow Light Snow
11:13 PM 33.8 °F 25.3 °F 30.2 °F 87% 29.90 in 3.0 mi SSE 11.5 mph 17.3 mph 0.01 in Snow Light Snow
11:25 PM 33.8 °F 25.8 °F 30.2 °F 87% 29.89 in 8.0 mi SSE 10.4 mph 24.2 mph 0.01 in Snow Light Snow
11:53 PM 34.0 °F 28.8 °F 30.0 °F 85% 29.90 in 10.0 mi Variable 5.8 mph - 0.01 in   Overcast